When you browse on this site, cookies collect data to enhance your experience and personalize the content and advertising you see.
Visit our Privacy Policy to learn more. By continuing to use the site, you agree to this use of cookies and data.
  • In Netherlands
  • List of Countries
  • For 7 days
  • Water Temperature
  • Satellite Maps
  • Weather Map
  • Weather Widgets
  • user-avatar
    Login

    Hourly Weather Stepnoy Mayak

    Today, 23 February, Saturday

    Time Temperature Precipitation Wind Pressure Humidity
    00:00 -5°C° 0.2 mm 4 mps 758 mmHg 76%
    01:00 -5°C° 0.3 mm 4 mps 759 mmHg 79%
    02:00 -6°C° 0.3 mm 5 mps 759 mmHg 81%
    03:00 -7°C° 0 mm 4 mps 759 mmHg 84%
    04:00 -7°C° 0.4 mm 4 mps 760 mmHg 85%
    05:00 -7°C° 0.4 mm 5 mps 760 mmHg 87%
    06:00 -7°C° 0.4 mm 5 mps 760 mmHg 89%
    07:00 -7°C° 0.3 mm 5 mps 760 mmHg 88%
    08:00 -7°C° 0.3 mm 5 mps 761 mmHg 88%
    09:00 -6°C° 0 mm 5 mps 762 mmHg 88%
    10:00 -6°C° 0.3 mm 5 mps 762 mmHg 88%
    11:00 -6°C° 0.3 mm 5 mps 762 mmHg 88%
    12:00 -5°C° 0.3 mm 5 mps 762 mmHg 88%
    13:00 -5°C° 0.5 mm 5 mps 762 mmHg 89%
    14:00 -5°C° 0.5 mm 5 mps 763 mmHg 90%
    15:00 -5°C° 0.5 mm 5 mps 763 mmHg 91%
    16:00 -5°C° 0.6 mm 5 mps 763 mmHg 92%
    17:00 -6°C° 0.6 mm 5 mps 763 mmHg 93%
    18:00 -6°C° 0.6 mm 5 mps 763 mmHg 94%
    19:00 -6°C° 0.5 mm 5 mps 764 mmHg 94%
    20:00 -6°C° 0.5 mm 5 mps 764 mmHg 94%
    21:00 -6°C° 0.5 mm 5 mps 764 mmHg 94%
    22:00 -7°C° 0.1 mm 5 mps 764 mmHg 93%
    23:00 -7°C° 0.1 mm 5 mps 764 mmHg 93%

    Tomorrow, 24 February, Sunday

    Time Temperature Precipitation Wind Pressure Humidity
    00:00 -7°C° 0.1 mm 5 mps 765 mmHg 93%
    01:00 -7°C° 0 mm 4 mps 765 mmHg 93%
    02:00 -7°C° 0 mm 4 mps 765 mmHg 93%
    03:00 -7°C° 0 mm 4 mps 765 mmHg 93%
    04:00 -8°C° 0 mm 4 mps 765 mmHg 93%
    05:00 -8°C° 0 mm 4 mps 765 mmHg 93%
    06:00 -8°C° 0 mm 4 mps 765 mmHg 93%
    07:00 -8°C° 0 mm 4 mps 765 mmHg 92%
    08:00 -8°C° 0 mm 4 mps 765 mmHg 92%
    09:00 -8°C° 0 mm 4 mps 766 mmHg 91%
    10:00 -7°C° 0 mm 3 mps 766 mmHg 90%
    11:00 -6°C° 0 mm 3 mps 766 mmHg 89%
    12:00 -6°C° 0 mm 3 mps 766 mmHg 87%
    13:00 -5°C° 0 mm 3 mps 766 mmHg 86%
    14:00 -5°C° 0 mm 3 mps 766 mmHg 84%
    15:00 -5°C° 0 mm 3 mps 766 mmHg 82%
    16:00 -4°C° 0 mm 2 mps 766 mmHg 83%
    17:00 -5°C° 0 mm 2 mps 766 mmHg 84%
    18:00 -6°C° 0 mm 2 mps 766 mmHg 86%
    19:00 -7°C° 0 mm 2 mps 766 mmHg 87%
    20:00 -7°C° 0 mm 2 mps 766 mmHg 89%
    21:00 -7°C° 0 mm 1 mps 766 mmHg 90%
    22:00 -9°C° 0 mm 2 mps 766 mmHg 91%
    23:00 -9°C° 0 mm 2 mps 766 mmHg 91%

    Day after tomorrow, 25 February, Monday

    Time Temperature Precipitation Wind Pressure Humidity
    00:00 -10°C° 0 mm 2 mps 766 mmHg 92%
    01:00 -10°C° 0 mm 2 mps 766 mmHg 92%
    02:00 -10°C° 0 mm 2 mps 766 mmHg 92%
    03:00 -10°C° 0 mm 2 mps 765 mmHg 91%
    04:00 -10°C° 0 mm 2 mps 765 mmHg 90%
    05:00 -12°C° 0 mm 3 mps 765 mmHg 89%
    06:00 -12°C° 0 mm 3 mps 764 mmHg 87%
    07:00 -10°C° 0 mm 3 mps 764 mmHg 85%
    08:00 -10°C° 0 mm 4 mps 764 mmHg 83%
    09:00 -10°C° 0 mm 5 mps 763 mmHg 80%
    10:00 -8°C° 0 mm 5 mps 763 mmHg 80%
    11:00 -7°C° 0 mm 5 mps 762 mmHg 81%
    12:00 -5°C° 0 mm 6 mps 762 mmHg 81%
    13:00 -5°C° 0 mm 6 mps 761 mmHg 82%
    14:00 -4°C° 0 mm 6 mps 760 mmHg 83%
    15:00 -3°C° 0 mm 7 mps 760 mmHg 84%
    16:00 -4°C° 0 mm 6 mps 759 mmHg 86%
    17:00 -4°C° 0 mm 6 mps 758 mmHg 87%
    18:00 -5°C° 0 mm 6 mps 758 mmHg 88%
    19:00 -5°C° 0.1 mm 6 mps 757 mmHg 88%
    20:00 -6°C° 0.1 mm 7 mps 757 mmHg 89%
    21:00 -6°C° 0.1 mm 7 mps 756 mmHg 89%
    22:00 -6°C° 0.4 mm 7 mps 755 mmHg 90%
    23:00 -4°C° 0.4 mm 7 mps 755 mmHg 91%

    26 February, Tuesday

    Time Temperature Precipitation Wind Pressure Humidity
    00:00 -4°C° 0.4 mm 7 mps 754 mmHg 92%
    01:00 -4°C° 0.3 mm 7 mps 753 mmHg 92%
    02:00 -4°C° 0.3 mm 7 mps 753 mmHg 92%
    03:00 -3°C° 0.3 mm 7 mps 752 mmHg 91%
    04:00 -3°C° 0.2 mm 7 mps 751 mmHg 91%
    05:00 -3°C° 0.2 mm 7 mps 751 mmHg 91%
    06:00 -3°C° 0.2 mm 6 mps 750 mmHg 91%
    07:00 -3°C° 0 mm 6 mps 750 mmHg 90%
    08:00 -3°C° 0 mm 7 mps 750 mmHg 89%
    09:00 -3°C° 0 mm 7 mps 750 mmHg 89%
    10:00 -3°C° 0.1 mm 7 mps 749 mmHg 90%
    11:00 -3°C° 0.1 mm 7 mps 749 mmHg 91%
    12:00 -2°C° 0.1 mm 7 mps 748 mmHg 92%
    13:00 -2°C° 0.1 mm 7 mps 748 mmHg 91%
    14:00 -2°C° 0.1 mm 7 mps 748 mmHg 90%
    15:00 -2°C° 0.1 mm 7 mps 747 mmHg 89%
    16:00 -2°C° 0 mm 6 mps 747 mmHg 89%
    17:00 -2°C° 0 mm 5 mps 747 mmHg 89%
    18:00 -2°C° 0 mm 5 mps 747 mmHg 90%
    19:00 -2°C° 0 mm 5 mps 747 mmHg 91%
    20:00 -2°C° 0 mm 5 mps 747 mmHg 92%
    21:00 -2°C° 0 mm 5 mps 747 mmHg 93%
    22:00 -2°C° 0.1 mm 5 mps 746 mmHg 93%
    23:00 -3°C° 0.1 mm 4 mps 746 mmHg 94%

    27 February, Wednesday

    Time Temperature Precipitation Wind Pressure Humidity
    00:00 -3°C° 0.1 mm 4 mps 746 mmHg 95%
    01:00 -3°C° 0 mm 4 mps 746 mmHg 95%
    02:00 -4°C° 0 mm 3 mps 746 mmHg 96%
    03:00 -4°C° 0 mm 3 mps 746 mmHg 96%
    04:00 -5°C° 0 mm 3 mps 746 mmHg 96%
    05:00 -5°C° 0 mm 3 mps 747 mmHg 96%
    06:00 -4°C° 0 mm 2 mps 747 mmHg 96%
    07:00 -3°C° 0 mm 2 mps 747 mmHg 95%
    08:00 -4°C° 0 mm 3 mps 747 mmHg 94%
    09:00 -2°C° 0 mm 3 mps 748 mmHg 93%
    10:00 -2°C° 0 mm 3 mps 748 mmHg 92%
    11:00 -1°C° 0 mm 3 mps 748 mmHg 91%
    12:00 0°C° 0 mm 3 mps 748 mmHg 90%
    13:00 -1°C° 0 mm 4 mps 748 mmHg 87%
    14:00 -1°C° 0 mm 4 mps 748 mmHg 85%
    15:00 -1°C° 0 mm 4 mps 748 mmHg 83%
    16:00 -1°C° 0 mm 4 mps 748 mmHg 85%
    17:00 -1°C° 0 mm 3 mps 748 mmHg 86%
    18:00 -1°C° 0 mm 3 mps 748 mmHg 88%
    19:00 -1°C° 0 mm 3 mps 749 mmHg 89%
    20:00 -2°C° 0 mm 3 mps 749 mmHg 91%
    21:00 -3°C° 0 mm 4 mps 749 mmHg 92%
    22:00 -3°C° 0.1 mm 4 mps 749 mmHg 92%
    23:00 -3°C° 0.1 mm 4 mps 749 mmHg 92%

    28 February, Thursday

    Time Temperature Precipitation Wind Pressure Humidity
    00:00 -3°C° 0.1 mm 4 mps 749 mmHg 93%
    01:00 -3°C° 0 mm 4 mps 748 mmHg 92%
    02:00 -5°C° 0 mm 5 mps 748 mmHg 91%
    03:00 -5°C° 0 mm 5 mps 748 mmHg 90%
    04:00 -5°C° 0.1 mm 5 mps 748 mmHg 89%
    05:00 -5°C° 0.1 mm 5 mps 747 mmHg 87%
    06:00 -5°C° 0.1 mm 5 mps 747 mmHg 85%
    07:00 -5°C° 0 mm 5 mps 747 mmHg 82%
    08:00 -4°C° 0 mm 6 mps 747 mmHg 78%
    09:00 -4°C° 0 mm 7 mps 747 mmHg 74%
    10:00 -4°C° 0 mm 7 mps 747 mmHg 74%
    11:00 -3°C° 0 mm 7 mps 747 mmHg 75%
    12:00 -3°C° 0 mm 7 mps 747 mmHg 75%
    13:00 -2°C° 0.1 mm 7 mps 747 mmHg 76%
    14:00 -2°C° 0.1 mm 7 mps 746 mmHg 78%
    15:00 -2°C° 0.1 mm 7 mps 746 mmHg 80%
    16:00 -2°C° 0 mm 6 mps 746 mmHg 82%
    17:00 -2°C° 0 mm 6 mps 746 mmHg 84%
    18:00 -2°C° 0 mm 5 mps 746 mmHg 87%
    19:00 -2°C° 0 mm 5 mps 746 mmHg 88%
    20:00 -2°C° 0 mm 5 mps 746 mmHg 89%
    21:00 -2°C° 0 mm 5 mps 746 mmHg 91%
    22:00 -2°C° 0 mm 5 mps 745 mmHg 92%
    23:00 -2°C° 0 mm 5 mps 745 mmHg 93%
    Show more